Saguache, CO

1:59 AM MDT on May 24, 2017 (GMT -0600)
Saguache

Weather History for K04V - July, 2013

Change the Weather History Date:

Monday, July 15, 2013

  Actual Average (KALS) Record (KALS)
Temperature  
Mean Temperature 60 °F -  
Max Temperature 68 °F 82 °F 91 °F (2003)
Min Temperature 51 °F 47 °F 39 °F (1962)
Degree Days  
Heating Degree Days 6    
Growing Degree Days 10 (Base 50)    
Moisture  
Dew Point 52 °F    
Average Humidity 74    
Maximum Humidity 100    
Minimum Humidity 59    
Precipitation  
Precipitation 0.00 in - - ()
Sea Level Pressure  
Sea Level Pressure 30.34 in    
Wind  
Wind Speed 7 mph (West)    
Max Wind Speed 17 mph    
Max Gust Speed 25 mph    
Visibility 10 miles    
Events Thunderstorm    
Averages and records for this station are not official NWS values.
T = Trace of Precipitation, MM = Missing Value Source: NWS Daily Summary

Daily Weather History Graph

Daily Weather History Graph

Search for Another Location

Airport or City:

Trip Planner

Search our weather history database for the weather conditions in past years. The results will help you decide how hot, cold, wet, or windy it might be!

Date:

Astronomy

Jul. 15, 2013 Rise Set
Actual Time 5:54 AM MDT 8:26 PM MDT
Civil Twilight 5:23 AM MDT 8:57 PM MDT
Nautical Twilight 4:45 AM MDT 9:35 PM MDT
Astronomical Twilight 4:03 AM MDT 10:17 PM MDT
Moon 1:08 PM MDT (7/15) No Moon Set
Length of Visible Light 15h 33m
Length of Day
14h 32m
Waxing Crescent, 46% of the Moon is Illuminated
Jul 15
Waxing Crescent
Jul 15
First Quarter
Jul 22
Full
Jul 29
Last Quarter
Aug 6
New

Hourly Weather History & Observations

Time (MDT) Temp. Dew Point Humidity Pressure Visibility Wind Dir Wind Speed Gust Speed Precip Events Conditions
12:10 AM 59.0 °F 53.6 °F 82% 30.40 in 10.0 mi NNE 5.8 mph - N/A   Mostly Cloudy
12:33 AM 60.8 °F 51.8 °F 72% 30.40 in 10.0 mi South 3.5 mph - N/A   Overcast
12:54 AM 59.0 °F 53.6 °F 82% 30.39 in 10.0 mi West 5.8 mph - N/A   Overcast
1:14 AM 57.2 °F 53.6 °F 88% 30.39 in 10.0 mi NW 4.6 mph - N/A   Overcast
1:34 AM 57.2 °F 53.6 °F 88% 30.39 in 10.0 mi NW 5.8 mph - N/A   Overcast
1:54 AM 55.4 °F 53.6 °F 94% 30.38 in 10.0 mi West 4.6 mph - N/A   Scattered Clouds
2:14 AM 57.2 °F 51.8 °F 82% 30.38 in 10.0 mi Calm Calm - N/A   Clear
2:34 AM 55.4 °F 51.8 °F 88% 30.38 in 10.0 mi Calm Calm - N/A   Clear
2:53 AM 55.4 °F 51.8 °F 88% 30.38 in 10.0 mi Calm Calm - N/A   Clear
3:13 AM 53.6 °F 51.8 °F 94% 30.36 in 10.0 mi Calm Calm - N/A   Clear
3:34 AM 53.6 °F 51.8 °F 94% 30.35 in 10.0 mi NNE 9.2 mph - N/A   Clear
3:54 AM 53.6 °F 50.0 °F 88% 30.34 in 10.0 mi NNW 8.1 mph - N/A   Clear
4:13 AM 53.6 °F 51.8 °F 94% 30.34 in 10.0 mi NNW 8.1 mph - N/A   Clear
4:34 AM 51.8 °F 51.8 °F 100% 30.35 in 10.0 mi NW 6.9 mph - N/A   Clear
4:54 AM 53.6 °F 51.8 °F 94% 30.36 in 10.0 mi NNW 8.1 mph - N/A   Scattered Clouds
5:14 AM 53.6 °F 50.0 °F 88% 30.35 in 10.0 mi NW 12.7 mph 16.1 mph N/A   Scattered Clouds
5:34 AM 53.6 °F 50.0 °F 88% 30.34 in 10.0 mi NNW 8.1 mph 12.7 mph N/A   Mostly Cloudy
5:54 AM 53.6 °F 50.0 °F 88% 30.34 in 10.0 mi NW 16.1 mph - N/A   Scattered Clouds
6:14 AM 53.6 °F 50.0 °F 88% 30.34 in 10.0 mi NW 17.3 mph 25.3 mph N/A   Scattered Clouds
6:34 AM 55.4 °F 50.0 °F 82% 30.34 in 10.0 mi NW 16.1 mph 20.7 mph N/A   Mostly Cloudy
6:54 AM 55.4 °F 50.0 °F 82% 30.34 in 10.0 mi NW 16.1 mph - N/A   Overcast
7:14 AM 55.4 °F 50.0 °F 82% 30.35 in 10.0 mi NW 15.0 mph - N/A   Overcast
7:34 AM 57.2 °F 50.0 °F 77% 30.35 in 10.0 mi NW 16.1 mph - N/A   Overcast
7:54 AM 59.0 °F 50.0 °F 72% 30.36 in 10.0 mi NW 13.8 mph 20.7 mph N/A   Mostly Cloudy
8:14 AM 59.0 °F 50.0 °F 72% 30.36 in 10.0 mi NNW 11.5 mph - N/A   Scattered Clouds
8:34 AM 59.0 °F 50.0 °F 72% 30.36 in 10.0 mi NNW 6.9 mph - N/A   Mostly Cloudy
8:53 AM 60.8 °F 50.0 °F 68% 30.36 in 10.0 mi WNW 6.9 mph - N/A   Mostly Cloudy
9:14 AM 62.6 °F 51.8 °F 68% 30.36 in 10.0 mi WNW 9.2 mph - N/A   Mostly Cloudy
9:34 AM 62.6 °F 51.8 °F 68% 30.36 in 10.0 mi West 5.8 mph - N/A   Scattered Clouds
9:53 AM 62.6 °F 51.8 °F 68% 30.36 in 10.0 mi SW 3.5 mph - N/A   Clear
10:14 AM 64.4 °F 50.0 °F 59% 30.36 in 10.0 mi Calm Calm - N/A   Clear
10:34 AM 64.4 °F 53.6 °F 68% 30.35 in 10.0 mi SSE 5.8 mph - N/A   Mostly Cloudy
10:54 AM 66.2 °F 51.8 °F 60% 30.35 in 10.0 mi South 8.1 mph - N/A   Overcast
11:14 AM 64.4 °F 51.8 °F 64% 30.36 in 10.0 mi South 6.9 mph - N/A   Overcast
11:34 AM 64.4 °F 53.6 °F 68% 30.36 in 10.0 mi SSE 6.9 mph - N/A   Overcast
11:54 AM 64.4 °F 53.6 °F 68% 30.35 in 10.0 mi South 6.9 mph - N/A   Overcast
12:13 PM 66.2 °F 53.6 °F 64% 30.36 in 10.0 mi SSE 8.1 mph - N/A   Overcast
12:34 PM 64.4 °F 55.4 °F 73% 30.35 in 7.0 mi South 6.9 mph - N/A   Overcast
12:54 PM 64.4 °F 53.6 °F 68% 30.35 in 10.0 mi SE 15.0 mph - N/A   Overcast
1:14 PM 64.4 °F 51.8 °F 64% 30.34 in 10.0 mi SE 8.1 mph - N/A   Overcast
1:34 PM 64.4 °F 53.6 °F 68% 30.34 in 10.0 mi NE 3.5 mph - N/A   Overcast
1:53 PM 64.4 °F 51.8 °F 64% 30.34 in 10.0 mi NNW 3.5 mph - N/A   Mostly Cloudy
2:13 PM 64.4 °F 55.4 °F 73% 30.34 in 10.0 mi WNW 9.2 mph - N/A   Mostly Cloudy
2:34 PM 62.6 °F 53.6 °F 72% 30.33 in 10.0 mi WNW 11.5 mph - N/A   Scattered Clouds
2:54 PM 64.4 °F 53.6 °F 68% 30.32 in 10.0 mi WNW 6.9 mph - N/A   Scattered Clouds
3:14 PM 64.4 °F 53.6 °F 68% 30.31 in 10.0 mi WNW 5.8 mph - N/A   Mostly Cloudy
3:34 PM 66.2 °F 51.8 °F 60% 30.31 in 10.0 mi Calm Calm - N/A   Overcast
3:52 PM 66.2 °F 53.6 °F 64% 30.30 in - SSW 12.7 mph - N/A Thunderstorm Thunderstorm
4:13 PM 68.0 °F 53.6 °F 60% 30.29 in 10.0 mi SSW 11.5 mph - N/A   Unknown
4:33 PM 66.2 °F 53.6 °F 64% 30.29 in 10.0 mi SW 10.4 mph - N/A   Overcast
4:53 PM 66.2 °F 53.6 °F 64% 30.29 in 10.0 mi SW 6.9 mph - N/A   Overcast
5:13 PM 66.2 °F 51.8 °F 60% 30.29 in 10.0 mi South 9.2 mph - N/A   Overcast
5:32 PM 66.2 °F 51.8 °F 60% 30.29 in 10.0 mi SSW 8.1 mph - N/A Thunderstorm Mostly Cloudy
5:53 PM 66.2 °F 51.8 °F 60% 30.29 in 10.0 mi South 9.2 mph - N/A   Mostly Cloudy
6:13 PM 64.4 °F 51.8 °F 64% 30.29 in 10.0 mi SSE 8.1 mph - N/A   Overcast
6:33 PM 64.4 °F 53.6 °F 68% 30.29 in 10.0 mi SSE 6.9 mph - N/A   Overcast
6:53 PM 64.4 °F 51.8 °F 64% 30.31 in 10.0 mi SE 6.9 mph - N/A Thunderstorm Overcast
7:12 PM 64.4 °F 51.8 °F 64% 30.31 in 10.0 mi SSE 6.9 mph - N/A   Overcast
7:33 PM 62.6 °F 48.2 °F 59% 30.31 in 10.0 mi SSE 5.8 mph - N/A   Overcast
7:52 PM 62.6 °F 50.0 °F 63% 30.31 in 10.0 mi WNW 4.6 mph - N/A   Overcast
8:13 PM 62.6 °F 50.0 °F 63% 30.31 in 10.0 mi North 3.5 mph - N/A   Overcast
8:33 PM 60.8 °F 50.0 °F 68% 30.31 in 10.0 mi West 4.6 mph - N/A   Mostly Cloudy
8:52 PM 59.0 °F 50.0 °F 72% 30.32 in 10.0 mi North 6.9 mph - N/A   Scattered Clouds
9:13 PM 59.0 °F 50.0 °F 72% 30.33 in 10.0 mi North 5.8 mph - N/A   Mostly Cloudy
9:33 PM 59.0 °F 50.0 °F 72% 30.34 in 10.0 mi North 5.8 mph - N/A   Mostly Cloudy
9:52 PM 59.0 °F 50.0 °F 72% 30.35 in 10.0 mi Calm Calm - N/A   Mostly Cloudy
10:13 PM 57.2 °F 50.0 °F 77% 30.36 in 10.0 mi SSE 6.9 mph - N/A   Scattered Clouds
10:33 PM 57.2 °F 48.2 °F 72% 30.36 in 10.0 mi Calm Calm - N/A   Mostly Cloudy
10:53 PM 57.2 °F 48.2 °F 72% 30.36 in 10.0 mi Calm Calm - N/A   Overcast
11:13 PM 57.2 °F 48.2 °F 72% 30.36 in 10.0 mi SE 5.8 mph - N/A   Overcast
11:33 PM 55.4 °F 48.2 °F 77% 30.36 in 10.0 mi East 3.5 mph - N/A   Scattered Clouds
11:52 PM 53.6 °F 48.2 °F 82% 30.36 in 10.0 mi East 5.8 mph - N/A   Scattered Clouds